JAL218 RJBD-RJTT

Flight info

Callsign JAL218
Flight time 0h 56m
Altitude 31000
Route KEC Y43 MENUR Y21 AKSEL
Aircraft B738/M-SDE2E3FGHIRWXY/LB1

Departure

Time 2026-04-24 12:27
Airport Nanki Shirahama Airport (RJBD)

Arrival

Time 2026-04-24 13:23
Airport Tokyo Haneda International Airport (RJTT)
Time Latitude Longitude Altitude Speed Heading
2026-04-24 12:13 33.66283 135.36113 299 ft 0 kts 237°
2026-04-24 12:18 33.66291 135.36126 300 ft 2 kts 254°
2026-04-24 12:18 33.66289 135.36145 299 ft 2 kts 319°
2026-04-24 12:19 33.66281 135.36153 300 ft 0 kts 321°
2026-04-24 12:21 33.66286 135.36148 299 ft 4 kts 322°
2026-04-24 12:22 33.66318 135.36150 300 ft 5 kts 39°
2026-04-24 12:22 33.66341 135.36188 300 ft 6 kts 55°
2026-04-24 12:22 33.66364 135.36225 298 ft 6 kts 51°
2026-04-24 12:22 33.66388 135.36271 298 ft 8 kts 77°
2026-04-24 12:23 33.66352 135.36340 300 ft 13 kts 139°
2026-04-24 12:23 33.66276 135.36417 298 ft 15 kts 141°
2026-04-24 12:23 33.66189 135.36502 296 ft 17 kts 141°
2026-04-24 12:23 33.66093 135.36597 296 ft 18 kts 140°
2026-04-24 12:24 33.65996 135.36689 294 ft 18 kts 142°
2026-04-24 12:24 33.65894 135.36786 292 ft 19 kts 141°
2026-04-24 12:24 33.65788 135.36887 293 ft 19 kts 141°
2026-04-24 12:24 33.65687 135.36986 286 ft 19 kts 140°
2026-04-24 12:25 33.65612 135.37074 286 ft 14 kts 120°
2026-04-24 12:25 33.65583 135.37132 285 ft 2 kts 135°
2026-04-24 12:25 33.65569 135.37138 286 ft 5 kts 174°
2026-04-24 12:25 33.65578 135.37090 286 ft 6 kts 320°
2026-04-24 12:26 33.65688 135.36981 286 ft 51 kts 321°
2026-04-24 12:26 33.65961 135.36722 293 ft 98 kts 321°
2026-04-24 12:26 33.66659 135.36048 352 ft 152 kts 323°
2026-04-24 12:26 33.67889 135.34916 835 ft 186 kts 324°
2026-04-24 12:27 33.68509 135.34179 1366 ft 188 kts 303°
2026-04-24 12:27 33.68731 135.32589 1978 ft 206 kts 257°
2026-04-24 12:27 33.68014 135.31135 2721 ft 205 kts 221°
2026-04-24 12:27 33.66765 135.30325 3402 ft 207 kts 197°
2026-04-24 12:28 33.65385 135.29757 3957 ft 216 kts 198°
2026-04-24 12:28 33.63888 135.29140 4138 ft 238 kts 198°
2026-04-24 12:28 33.62290 135.28494 4607 ft 243 kts 193°
2026-04-24 12:28 33.60618 135.28486 5179 ft 244 kts 159°
2026-04-24 12:29 33.59221 135.29580 5885 ft 240 kts 127°
2026-04-24 12:29 33.58408 135.31302 6619 ft 238 kts 107°
2026-04-24 12:29 33.57869 135.33192 7258 ft 245 kts 105°
2026-04-24 12:29 33.57320 135.35242 7496 ft 270 kts 106°
2026-04-24 12:30 33.56732 135.37393 8077 ft 278 kts 107°
2026-04-24 12:30 33.56114 135.39612 8804 ft 282 kts 108°
2026-04-24 12:30 33.55485 135.41850 9589 ft 285 kts 108°
2026-04-24 12:30 33.54841 135.44128 10236 ft 292 kts 109°
2026-04-24 12:31 33.54163 135.46521 10425 ft 315 kts 109°
2026-04-24 12:31 33.53431 135.49099 10634 ft 336 kts 109°
2026-04-24 12:31 33.52664 135.51802 11060 ft 348 kts 110°
2026-04-24 12:31 33.51874 135.54584 11628 ft 355 kts 110°
2026-04-24 12:32 33.51068 135.57422 12225 ft 362 kts 111°
2026-04-24 12:32 33.50254 135.60283 12838 ft 369 kts 111°
2026-04-24 12:32 33.49415 135.63228 13443 ft 376 kts 111°
2026-04-24 12:32 33.48560 135.66228 14058 ft 382 kts 112°
2026-04-24 12:33 33.47704 135.69234 14694 ft 386 kts 112°
2026-04-24 12:33 33.46832 135.72292 15396 ft 389 kts 112°
2026-04-24 12:33 33.45951 135.75371 16065 ft 393 kts 112°
2026-04-24 12:33 33.45157 135.78530 16685 ft 402 kts 102°
2026-04-24 12:34 33.45191 135.81923 17256 ft 414 kts 81°
2026-04-24 12:34 33.45810 135.85301 17921 ft 418 kts 78°
2026-04-24 12:34 33.46505 135.88711 18482 ft 424 kts 77°
2026-04-24 12:34 33.47215 135.92126 18955 ft 430 kts 77°
2026-04-24 12:35 33.47936 135.95625 19444 ft 436 kts 77°
2026-04-24 12:35 33.48658 135.99189 19958 ft 440 kts 77°
2026-04-24 12:35 33.49370 136.02771 20467 ft 445 kts 77°
2026-04-24 12:35 33.50087 136.06419 20923 ft 451 kts 78°
2026-04-24 12:36 33.50797 136.10062 21369 ft 457 kts 78°
2026-04-24 12:36 33.51520 136.13795 21831 ft 462 kts 78°
2026-04-24 12:36 33.52252 136.17577 22291 ft 467 kts 78°
2026-04-24 12:36 33.52987 136.21389 22754 ft 472 kts 78°
2026-04-24 12:37 33.53730 136.25244 23209 ft 477 kts 78°
2026-04-24 12:37 33.54481 136.29143 23648 ft 482 kts 78°
2026-04-24 12:37 33.55229 136.33033 23991 ft 486 kts 78°
2026-04-24 12:37 33.55993 136.37015 24361 ft 490 kts 78°
2026-04-24 12:38 33.56758 136.41010 24773 ft 493 kts 78°
2026-04-24 12:38 33.57528 136.45035 25136 ft 497 kts 78°
2026-04-24 12:38 33.58302 136.49089 25463 ft 502 kts 78°
2026-04-24 12:39 33.60652 136.61450 26581 ft 510 kts 78°
2026-04-24 12:39 33.61434 136.65577 27400 ft 501 kts 78°
2026-04-24 12:39 33.62199 136.69620 28215 ft 492 kts 78°
2026-04-24 12:40 33.62942 136.73555 29031 ft 484 kts 78°
2026-04-24 12:40 33.63681 136.77473 29835 ft 475 kts 78°
2026-04-24 12:40 33.64409 136.81309 30483 ft 469 kts 78°
2026-04-24 12:40 33.65138 136.85139 30813 ft 471 kts 79°
2026-04-24 12:41 33.65874 136.89010 31018 ft 477 kts 79°
2026-04-24 12:41 33.67354 136.96828 31065 ft 486 kts 79°
2026-04-24 12:42 33.68839 137.04684 31053 ft 477 kts 79°
2026-04-24 12:42 33.70276 137.12477 31060 ft 477 kts 85°
2026-04-24 12:42 33.70337 137.16395 31051 ft 463 kts 107°
2026-04-24 12:43 33.69501 137.20031 31065 ft 440 kts 127°
2026-04-24 12:43 33.68010 137.23062 31066 ft 415 kts 144°
2026-04-24 12:43 33.66049 137.25446 31062 ft 389 kts 159°
2026-04-24 12:43 33.63839 137.27108 31053 ft 363 kts 173°
2026-04-24 12:44 33.61534 137.28101 31049 ft 341 kts 185°
2026-04-24 12:44 33.59251 137.28488 31063 ft 322 kts 195°
2026-04-24 12:44 33.57097 137.28360 31059 ft 306 kts 204°
2026-04-24 12:44 33.55062 137.27787 31055 ft 293 kts 213°
2026-04-24 12:45 33.53180 137.26897 31054 ft 286 kts 218°
2026-04-24 12:45 33.51565 137.25641 31046 ft 269 kts 233°
2026-04-24 12:45 33.50606 137.23832 31050 ft 259 kts 252°
2026-04-24 12:45 33.50172 137.21741 31049 ft 259 kts 257°
2026-04-24 12:46 33.49857 137.19616 31057 ft 259 kts 256°
2026-04-24 12:46 33.49502 137.17494 31046 ft 259 kts 256°
2026-04-24 12:46 33.49128 137.15386 31049 ft 258 kts 256°
2026-04-24 12:46 33.48748 137.13284 31049 ft 258 kts 255°
2026-04-24 12:47 33.48547 137.11141 31024 ft 264 kts 270°
2026-04-24 12:47 33.49182 137.09039 31047 ft 287 kts 291°
2026-04-24 12:47 33.50680 137.07277 31058 ft 322 kts 312°
2026-04-24 12:47 33.52870 137.06222 31057 ft 361 kts 333°
2026-04-24 12:48 33.55463 137.05909 31077 ft 384 kts 341°
2026-04-24 12:48 33.58228 137.06006 31094 ft 410 kts 353°
2026-04-24 12:48 33.61102 137.06785 31069 ft 437 kts
2026-04-24 12:48 33.63999 137.08162 31083 ft 456 kts 11°
2026-04-24 12:49 33.66877 137.09861 31048 ft 481 kts 25°
2026-04-24 12:49 33.69402 137.12679 31080 ft 509 kts 49°
2026-04-24 12:49 33.71159 137.16403 31058 ft 524 kts 71°
2026-04-24 12:50 33.72831 137.25039 31071 ft 538 kts 81°
2026-04-24 12:50 33.74287 137.33999 31069 ft 553 kts 80°
2026-04-24 12:51 33.75897 137.43115 31073 ft 566 kts 79°
2026-04-24 12:51 33.77614 137.52459 31066 ft 577 kts 79°
2026-04-24 12:52 33.79348 137.61979 31059 ft 584 kts 79°
2026-04-24 12:52 33.81068 137.71516 31049 ft 583 kts 79°
2026-04-24 12:53 33.82772 137.80987 31042 ft 582 kts 79°
2026-04-24 12:53 33.84476 137.90492 31058 ft 580 kts 79°
2026-04-24 12:54 33.86170 137.99991 31058 ft 579 kts 79°
2026-04-24 12:54 33.87845 138.09430 31060 ft 579 kts 79°
2026-04-24 12:55 33.89522 138.18922 31060 ft 579 kts 79°
2026-04-24 12:55 33.91461 138.28348 31060 ft 581 kts 70°
2026-04-24 12:56 33.94964 138.37086 31033 ft 582 kts 58°
2026-04-24 12:56 33.96948 138.41361 30585 ft 585 kts 58°
2026-04-24 12:56 33.98904 138.45564 30077 ft 578 kts 58°
2026-04-24 12:56 34.00845 138.49789 29474 ft 572 kts 59°
2026-04-24 12:57 34.02740 138.53989 28904 ft 565 kts 59°
2026-04-24 12:57 34.04594 138.58151 28377 ft 558 kts 59°
2026-04-24 12:57 34.06410 138.62259 27874 ft 550 kts 59°
2026-04-24 12:57 34.08187 138.66290 27320 ft 545 kts 60°
2026-04-24 12:58 34.09956 138.70304 26787 ft 539 kts 60°
2026-04-24 12:58 34.11721 138.74306 26270 ft 533 kts 60°
2026-04-24 12:58 34.13433 138.78186 25763 ft 528 kts 60°
2026-04-24 12:58 34.15153 138.82087 25254 ft 522 kts 60°
2026-04-24 12:59 34.16849 138.85938 24752 ft 517 kts 60°
2026-04-24 12:59 34.18536 138.89772 24245 ft 512 kts 60°
2026-04-24 12:59 34.20203 138.93564 23730 ft 508 kts 60°
2026-04-24 12:59 34.21843 138.97314 23154 ft 503 kts 60°
2026-04-24 13:00 34.23443 139.01010 22622 ft 499 kts 60°
2026-04-24 13:00 34.25064 139.04764 22097 ft 508 kts 61°
2026-04-24 13:00 34.26700 139.08556 21575 ft 508 kts 61°
2026-04-24 13:00 34.28322 139.12328 21191 ft 501 kts 62°
2026-04-24 13:01 34.29790 139.16160 20876 ft 501 kts 65°
2026-04-24 13:01 34.31188 139.20024 20257 ft 496 kts 63°
2026-04-24 13:01 34.32887 139.23549 19797 ft 486 kts 54°
2026-04-24 13:01 34.34790 139.26881 19397 ft 475 kts 52°
2026-04-24 13:02 34.36683 139.30122 18987 ft 466 kts 52°
2026-04-24 13:02 34.38544 139.33315 18591 ft 458 kts 53°
2026-04-24 13:02 34.40359 139.36460 18164 ft 451 kts 53°
2026-04-24 13:02 34.42128 139.39567 17743 ft 443 kts 54°
2026-04-24 13:03 34.43831 139.42588 17358 ft 435 kts 54°
2026-04-24 13:03 34.45524 139.45611 16984 ft 428 kts 54°
2026-04-24 13:03 34.47178 139.48573 16620 ft 420 kts 54°
2026-04-24 13:03 34.48809 139.51497 16264 ft 413 kts 54°
2026-04-24 13:04 34.50408 139.54368 15925 ft 408 kts 54°
2026-04-24 13:04 34.51977 139.57183 15585 ft 405 kts 54°
2026-04-24 13:04 34.53545 139.59998 15243 ft 401 kts 55°
2026-04-24 13:04 34.55105 139.62801 14895 ft 397 kts 55°
2026-04-24 13:05 34.56645 139.65571 14572 ft 394 kts 55°
2026-04-24 13:05 34.58173 139.68319 14243 ft 390 kts 55°
2026-04-24 13:05 34.59654 139.70988 13918 ft 384 kts 56°
2026-04-24 13:05 34.61127 139.73643 13528 ft 373 kts 56°
2026-04-24 13:06 34.62561 139.76231 13123 ft 362 kts 55°
2026-04-24 13:06 34.63944 139.78729 12790 ft 350 kts 55°
2026-04-24 13:06 34.65281 139.81145 12479 ft 338 kts 55°
2026-04-24 13:06 34.66576 139.83485 12195 ft 328 kts 54°
2026-04-24 13:07 34.67906 139.85660 11999 ft 319 kts 42°
2026-04-24 13:07 34.69665 139.87171 11981 ft 302 kts 26°
2026-04-24 13:07 34.71554 139.88078 11867 ft 287 kts 10°
2026-04-24 13:07 34.73522 139.88542 11524 ft 286 kts
2026-04-24 13:08 34.75452 139.88914 11294 ft 282 kts
2026-04-24 13:08 34.77377 139.89298 11129 ft 276 kts
2026-04-24 13:08 34.79260 139.89691 10841 ft 275 kts
2026-04-24 13:09 34.82959 139.90501 10459 ft 265 kts
2026-04-24 13:09 34.84741 139.90903 10274 ft 261 kts
2026-04-24 13:09 34.86513 139.91307 10094 ft 256 kts
2026-04-24 13:09 34.88258 139.91709 9921 ft 254 kts
2026-04-24 13:10 34.89990 139.92109 9739 ft 252 kts
2026-04-24 13:10 34.91728 139.92511 9574 ft 257 kts
2026-04-24 13:10 34.93515 139.92926 9412 ft 266 kts
2026-04-24 13:10 34.95346 139.93352 9223 ft 269 kts
2026-04-24 13:11 34.97196 139.93784 9031 ft 271 kts
2026-04-24 13:11 34.99053 139.94218 8838 ft 272 kts
2026-04-24 13:11 35.00286 139.94506 8719 ft 271 kts
2026-04-24 13:11 35.02704 139.95073 8472 ft 263 kts
2026-04-24 13:12 35.03914 139.95357 8349 ft 260 kts
2026-04-24 13:12 35.05670 139.95768 8180 ft 254 kts
2026-04-24 13:12 35.07377 139.96168 7963 ft 252 kts 10°
2026-04-24 13:12 35.09108 139.96573 7605 ft 254 kts 10°
2026-04-24 13:13 35.10845 139.96980 7373 ft 251 kts 10°
2026-04-24 13:13 35.12564 139.97356 7102 ft 251 kts
2026-04-24 13:13 35.14267 139.96999 6821 ft 250 kts 334°
2026-04-24 13:13 35.15604 139.95695 6530 ft 253 kts 310°
2026-04-24 13:14 35.16459 139.93832 6373 ft 249 kts 295°
2026-04-24 13:14 35.17104 139.91865 6126 ft 248 kts 293°
2026-04-24 13:14 35.17734 139.89890 6027 ft 251 kts 294°
2026-04-24 13:14 35.18383 139.87886 5990 ft 252 kts 294°
2026-04-24 13:15 35.19024 139.85930 5985 ft 250 kts 294°
2026-04-24 13:15 35.19671 139.83969 5993 ft 248 kts 294°
2026-04-24 13:15 35.20445 139.82095 5973 ft 245 kts 313°
2026-04-24 13:15 35.21833 139.80933 5770 ft 247 kts 342°
2026-04-24 13:16 35.23486 139.80379 5468 ft 246 kts 347°
2026-04-24 13:16 35.25157 139.79869 5156 ft 247 kts 347°
2026-04-24 13:16 35.26805 139.79359 4855 ft 248 kts 347°
2026-04-24 13:16 35.28485 139.78831 4533 ft 248 kts 347°
2026-04-24 13:17 35.30158 139.78305 4223 ft 248 kts 348°
2026-04-24 13:17 35.31849 139.78281 3992 ft 239 kts 18°
2026-04-24 13:17 35.33304 139.79064 3900 ft 220 kts 32°
2026-04-24 13:17 35.34548 139.80036 3782 ft 204 kts 34°
2026-04-24 13:18 35.35699 139.80960 3428 ft 202 kts 34°
2026-04-24 13:18 35.36870 139.81888 3168 ft 197 kts 34°
2026-04-24 13:18 35.38004 139.82778 2961 ft 189 kts 34°
2026-04-24 13:18 35.39099 139.83632 2755 ft 182 kts 35°
2026-04-24 13:19 35.40130 139.84434 2580 ft 173 kts 36°
2026-04-24 13:19 35.41176 139.85147 2390 ft 173 kts 18°
2026-04-24 13:19 35.42359 139.85185 2249 ft 164 kts
2026-04-24 13:19 35.43476 139.85170 2062 ft 158 kts
2026-04-24 13:20 35.44564 139.84986 1868 ft 163 kts 340°
2026-04-24 13:20 35.45553 139.84310 1753 ft 165 kts 336°
2026-04-24 13:20 35.46566 139.83623 1615 ft 164 kts 335°
2026-04-24 13:20 35.47548 139.82930 1448 ft 162 kts 334°
2026-04-24 13:21 35.48532 139.82228 1240 ft 164 kts 333°
2026-04-24 13:21 35.49477 139.81552 1020 ft 152 kts 333°
2026-04-24 13:21 35.50355 139.80926 811 ft 144 kts 333°
2026-04-24 13:21 35.51225 139.80305 629 ft 146 kts 333°
2026-04-24 13:22 35.52108 139.79675 422 ft 147 kts 332°
2026-04-24 13:22 35.52984 139.79050 237 ft 144 kts 333°
2026-04-24 13:22 35.53854 139.78434 46 ft 144 kts 334°
2026-04-24 13:22 35.54637 139.77889 25 ft 102 kts 329°
2026-04-24 13:23 35.54930 139.77675 24 ft 7 kts 335°
2026-04-24 13:23 35.54977 139.77655 26 ft 7 kts 347°
2026-04-24 13:23 35.55028 139.77641 25 ft 9 kts 348°
2026-04-24 13:23 35.55100 139.77628 25 ft 12 kts
2026-04-24 13:24 35.55188 139.77666 23 ft 15 kts 53°
2026-04-24 13:24 35.55232 139.77760 27 ft 10 kts 58°
2026-04-24 13:24 35.55235 139.77833 23 ft 10 kts 147°
2026-04-24 13:24 35.55176 139.77871 26 ft 9 kts 151°
2026-04-24 13:25 35.55119 139.77910 26 ft 9 kts 148°
2026-04-24 13:25 35.55067 139.77950 25 ft 9 kts 148°
2026-04-24 13:25 35.55015 139.77991 25 ft 9 kts 147°
2026-04-24 13:25 35.54967 139.78032 24 ft 8 kts 124°
2026-04-24 13:26 35.55003 139.78076 25 ft 8 kts 22°
2026-04-24 13:26 35.55030 139.78091 25 ft 1 kts 25°
2026-04-24 13:26 35.55046 139.78100 25 ft 3 kts 25°
2026-04-24 13:26 35.55058 139.78107 25 ft 0 kts 25°